Weather History for 15420 - April, 2010

Change the Weather History Date:

Wednesday, April 21, 2010

  Actual Average Record
Temperature  
Mean Temperature 58 °F -  
Max Temperature 69 °F 71 °F - ()
Min Temperature 46 °F 48 °F - ()
Degree Days  
Heating Degree Days 8    
Growing Degree Days 8 (Base 50)    
Moisture  
Dew Point 46 °F    
Average Humidity 67    
Maximum Humidity 100    
Minimum Humidity 18    
Precipitation  
Precipitation 0.02 in 0.08 in - ()
Sea Level Pressure  
Sea Level Pressure 29.78 in    
Wind  
Wind Speed 4 mph ()    
Max Wind Speed 12 mph    
Max Gust Speed 20 mph    
Visibility 5.3 miles    
Events Fog , Rain    
T = Trace of Precipitation, MM = Missing Value Source: Averaged Metar Reports

Daily Weather History Graph

Daily Weather History Graph

Search for Another Location

Airport or City:

Trip Planner

Search our weather history database for the weather conditions in past years. The results will help you decide how hot, cold, wet, or windy it might be!

Date:

Astronomy

Apr. 21, 2010 Rise Set
Actual Time 6:22 AM EEST 8:07 PM EEST
Civil Twilight 5:51 AM EEST 8:38 PM EEST
Nautical Twilight 5:13 AM EEST 9:16 PM EEST
Astronomical Twilight 4:33 AM EEST 9:57 PM EEST
Moon 11:47 AM EEST (4/21) 2:17 AM EEST (4/21)
Length of Visible Light 14h 47m
Length of Day
13h 45m
Waxing Crescent, 46% of the Moon is Illuminated
Apr 21
Waxing Crescent
Apr 21
First Quarter
Apr 28
Full
May 6
Last Quarter
May 14
New

Hourly Weather History & Observations

Time (EEST) Temp. Dew Point Humidity Pressure Visibility Wind Dir Wind Speed Gust Speed Precip Events Conditions
12:00 AM 50 °F 50 °F 99% 29.78 in 6 mi South 4.5 mph - - Rain Light Rain
12:00 AM 51.8 °F 51.8 °F 100% 29.77 in 3.1 mi SW 3.5 mph - N/A Rain Light Rain
1:00 AM 51 °F 51 °F 99% 29.78 in 6 mi WSW 4.5 mph - - Rain Light Rain
1:00 AM 51.8 °F 51.8 °F 100% 29.77 in 3.1 mi West 5.8 mph - N/A Rain Light Rain
1:30 AM 51.8 °F 51.8 °F 100% 29.77 in 3.7 mi West 5.8 mph - N/A   Mostly Cloudy
2:00 AM 51 °F 51 °F 98% 29.78 in 6 mi WSW 4.5 mph - - Rain Light Rain
2:00 AM 51.8 °F 51.8 °F 100% 29.74 in 3.7 mi West 6.9 mph - N/A Rain Light Rain
2:30 AM 51.8 °F 50.0 °F 94% 29.74 in 3.7 mi West 6.9 mph - N/A Rain Light Rain
3:00 AM 50 °F 50 °F 98% 29.77 in 6 mi WSW 4.5 mph - - Rain Light Rain
4:00 AM 50 °F 49 °F 97% 29.78 in 6 mi West 4.5 mph - -   Mostly Cloudy
4:00 AM 51.8 °F 50.0 °F 94% 29.74 in 6.2 mi West 8.1 mph - N/A Rain Light Rain
4:30 AM 51.8 °F 50.0 °F 94% 29.74 in 6.2 mi WNW 6.9 mph - N/A Rain Light Rain
5:00 AM 50 °F 50 °F 99% 29.77 in 6 mi West 4.5 mph - -   Mostly Cloudy
5:00 AM 51.8 °F 51.8 °F 100% 29.74 in 5.0 mi West 6.9 mph - N/A   Partly Cloudy
5:30 AM 51.8 °F 51.8 °F 100% 29.74 in 3.7 mi West 8.1 mph - N/A   Partly Cloudy
6:00 AM 50 °F 50 °F 98% 29.78 in 6 mi West 6.7 mph - -   Partly Cloudy
6:00 AM 51.8 °F 50.0 °F 94% 29.74 in 3.1 mi WNW 6.9 mph - N/A   Partly Cloudy
6:30 AM 51.8 °F 50.0 °F 94% 29.74 in 2.5 mi WNW 5.8 mph - N/A   Partly Cloudy
7:00 AM 49 °F 49 °F 100% 29.78 in 6 mi West 4.5 mph - -   Mostly Cloudy
7:00 AM 51.8 °F 50.0 °F 94% 29.77 in 1.9 mi West 3.5 mph - N/A   Mist
7:30 AM 51.8 °F 50.0 °F 94% 29.77 in 1.9 mi West 3.5 mph - N/A Fog Fog
8:00 AM 48 °F 48 °F 98% 29.80 in 6 mi WSW 2.2 mph - -   Partly Cloudy
8:00 AM 51.8 °F 51.8 °F 100% 29.77 in 3.1 mi Variable 2.3 mph - N/A   Partly Cloudy
8:30 AM 53.6 °F 51.8 °F 94% 29.77 in 5.0 mi Calm Calm - N/A   Partly Cloudy
9:00 AM 51 °F 51 °F 99% 29.81 in 6 mi WNW 2.2 mph - -   Partly Cloudy
9:00 AM 55.4 °F 53.6 °F 94% 29.80 in 6.2 mi Calm Calm - N/A   Partly Cloudy
9:30 AM 57.2 °F 53.6 °F 88% 29.80 in 6.2 mi Variable 2.3 mph - N/A   Partly Cloudy
10:00 AM 59 °F 48 °F 57% 29.82 in 6 mi West 2.2 mph - -   Scattered Clouds
10:00 AM 59.0 °F 51.8 °F 77% 29.80 in - Calm Calm - N/A   Clear
10:30 AM 60.8 °F 51.8 °F 72% 29.80 in - NNW 2.3 mph - N/A   Clear
11:00 AM 63 °F 43 °F 36% 29.82 in 6 mi WNW 2.2 mph - -  
11:00 AM 60.8 °F 51.8 °F 72% 29.80 in 6.2 mi WNW 3.5 mph - N/A   Partly Cloudy
11:30 AM 62.6 °F 50.0 °F 63% 29.80 in 6.2 mi NW 5.8 mph - N/A   Partly Cloudy
12:00 PM 63 °F 39 °F 30% 29.83 in 6 mi NNW 4.5 mph - -   Scattered Clouds
12:30 PM 66.2 °F 48.2 °F 52% 29.80 in 6.2 mi NNW 3.5 mph - N/A   Scattered Clouds
1:00 PM 64 °F 37 °F 26% 29.82 in 6 mi West 4.5 mph - -   Partly Cloudy
1:00 PM 66.2 °F 41.0 °F 40% 29.80 in - WNW 6.9 mph - N/A   Clear
1:30 PM 68.0 °F 42.8 °F 40% 29.80 in - North 6.9 mph - N/A   Clear
2:00 PM 66 °F 33 °F 18% 29.81 in 6 mi WNW 6.7 mph - -   Mostly Cloudy
2:00 PM 68.0 °F 44.6 °F 43% 29.77 in - WNW 8.1 mph - N/A   Clear
2:30 PM 68.0 °F 41.0 °F 37% 29.77 in - WNW 9.2 mph - N/A   Clear
3:00 PM 67 °F 35 °F 19% 29.79 in 6 mi West 6.7 mph - -   Mostly Cloudy
3:00 PM 68.0 °F 41.0 °F 37% 29.77 in - NW 8.1 mph - N/A   Clear
3:30 PM 69.8 °F 41.0 °F 35% 29.77 in - WNW 8.1 mph - N/A   Clear
4:00 PM 68 °F 35 °F 18% 29.78 in 6 mi West 6.7 mph - -   Mostly Cloudy
4:00 PM 68.0 °F 41.0 °F 37% 29.77 in - WNW 9.2 mph - N/A   Clear
4:30 PM 69.8 °F 42.8 °F 38% 29.74 in - West 8.1 mph 19.6 mph N/A   Clear
5:00 PM 68 °F 35 °F 18% 29.77 in 6 mi West 8.9 mph - -   Mostly Cloudy
5:00 PM 69.8 °F 42.8 °F 38% 29.74 in - West 10.4 mph - N/A   Clear
5:30 PM 68.0 °F 41.0 °F 37% 29.74 in - West 8.1 mph - N/A   Clear
6:00 PM 67 °F 34 °F 18% 29.76 in 6 mi WSW 6.7 mph - -   Mostly Cloudy
6:00 PM 68.0 °F 42.8 °F 40% 29.74 in 6.2 mi West 11.5 mph - N/A   Partly Cloudy
6:30 PM 68.0 °F 41.0 °F 37% 29.74 in 6.2 mi NNW 5.8 mph - N/A   Partly Cloudy
7:00 PM 66 °F 34 °F 20% 29.78 in 6 mi North 4.5 mph - -   Mostly Cloudy
7:00 PM 68.0 °F 41.0 °F 37% 29.74 in 6.2 mi NE 5.8 mph - N/A   Scattered Clouds
7:30 PM 66.2 °F 42.8 °F 43% 29.77 in 6.2 mi NE 5.8 mph - N/A   Partly Cloudy
8:00 PM 64 °F 33 °F 20% 29.78 in 6 mi NE 2.2 mph - -   Partly Cloudy
8:00 PM 64.4 °F 42.8 °F 45% 29.77 in 6.2 mi Variable 2.3 mph - N/A   Partly Cloudy
8:30 PM 62.6 °F 41.0 °F 45% 29.77 in - Calm Calm - N/A   Clear
9:00 PM 50 °F 42 °F 65% 29.81 in 6 mi West 2.2 mph - -   Scattered Clouds
9:00 PM 60.8 °F 46.4 °F 59% 29.80 in - Calm Calm - N/A   Clear
9:30 PM 55.4 °F 50.0 °F 82% 29.80 in - NE 1.2 mph - N/A   Clear
10:00 PM 49 °F 45 °F 81% 29.84 in 6 mi NNE 2.2 mph - -   Scattered Clouds
10:00 PM 55.4 °F 48.2 °F 77% 29.80 in - NNE 1.2 mph - N/A   Clear
10:30 PM 57.2 °F 44.6 °F 63% 29.83 in - Calm Calm - N/A   Clear
11:00 PM 46 °F 44 °F 91% 29.86 in 6 mi Calm Calm - -  
11:00 PM 55.4 °F 44.6 °F 67% 29.83 in - Calm Calm - N/A   Clear
11:30 PM 53.6 °F 46.4 °F 77% 29.83 in - WNW 2.3 mph - N/A   Clear